This demonstration page uses our WeatherBlox Daily Observations layout. Learn more.

40.92945, -100.16068

Hourly Observations for August 9, 2018

Temp ( °F °C ) Dew Point ( °F °C ) Humidity (%) Winds ( mph kmh ) Pressure ( in mb ) Visibility ( mi km ) Precip ( " mm )
12:15 am 00:15 Clear 71 21.4 67 19.5 89 89 Calm 29.94 1014 10 16.0934 0 0
12:35 am 00:35 Clear 68 20.1 65 18.5 91 91 Calm 29.97 1015 7 11.26538 0 0
12:55 am 00:55 Clear with Mist and Fog 67 19.5 65 18.3 93 93 Calm 30 1016 5 8.0467 0 0
1:15 am 01:15 Clear with Mist and Fog 67 19.4 65 18.4 94 94 Calm 29.97 1015 4 6.43736 0 0
1:35 am 01:35 Clear with Mist and Fog 67 19.2 65 18.3 95 95 Calm 29.97 1015 3 4.82802 0 0
1:55 am 01:55 Clear with Mist and Fog 66 19 65 18.1 95 95 Calm 29.97 1015 4 6.43736 0 0
2:15 am 02:15 Clear with Mist and Fog 66 18.8 64 18 95 95 Calm 30 1016 4 6.43736 0 0
2:35 am 02:35 Clear with Mist and Fog 65 18.3 63 17.4 95 95 Calm 29.97 1015 5 8.0467 0 0
2:55 am 02:55 Clear with Mist and Fog 64 17.7 62 16.8 95 95 NW 3 6 29.97 1015 5 8.0467 0 0
3:15 am 03:15 Cloudy with Fog 64 17.6 62 16.9 96 96 Calm 29.97 1015 0.25 0.402335 0 0
3:35 am 03:35 Cloudy with Mist and Fog 64 17.7 63 17 96 96 Calm 29.97 1015 0.75 1.207005 0 0
3:55 am 03:55 Cloudy with Fog 64 17.5 62 16.7 95 95 Calm 29.97 1015 0.25 0.402335 0 0
4:10 am 04:10 Cloudy with Fog 63 17.2 62 16.5 96 96 Calm 29.97 1015 0.25 0.402335 0 0
4:37 am 04:37 Cloudy with Mist and Fog 63 17 63 17 100 100 Calm 29.97 1015 0.75 1.207005 0 0
4:57 am 04:57 Cloudy with Mist and Fog 63 17 63 17 100 100 Calm 29.97 1015 0.75 1.207005 0 0
5:18 am 05:18 Cloudy with Fog 63 17 61 16 94 94 Calm 29.97 1015 0.5 0.80467 0 0
5:38 am 05:38 Cloudy with Fog 63 17 61 16 94 94 Calm 29.97 1015 0.25 0.402335 0 0
5:56 am 05:56 Cloudy with Fog 63 17 61 16 94 94 Calm 29.97 1015 0.25 0.402335 0 0
6:15 am 06:15 Cloudy with Fog 62 16.5 61 16 97 97 Calm 30 1016 0.5 0.80467 0 0
6:35 am 06:35 Cloudy with Mist and Fog 61 16.1 60 15.5 96 96 Calm 30.03 1017 0.75 1.207005 0 0
6:55 am 06:55 Cloudy with Fog 61 16 60 15.5 97 97 NW 5 7 30.03 1017 0.5 0.80467 0 0
7:15 am 07:15 Cloudy with Fog 61 16.3 60 15.7 96 96 NW 3 6 30.03 1017 0.5 0.80467 0 0
7:35 am 07:35 Partly Cloudy with Mist and Fog 63 17.2 62 16.6 96 96 Calm 30 1016 1.75 2.816345 0 0
7:55 am 07:55 Sunny with Mist and Fog 64 17.7 63 17.1 96 96 Calm 30 1016 2.5 4.02335 0 0
8:15 am 08:15 Sunny with Mist and Fog 65 18.5 64 17.8 96 96 Calm 30 1016 3 4.82802 0 0
8:35 am 08:35 Sunny with Mist and Fog 67 19.7 66 19 96 96 WNW 3 6 30 1016 4 6.43736 0 0
8:55 am 08:55 Sunny with Mist and Fog 69 20.6 68 19.9 96 96 NW 6 9 29.97 1015 5 8.0467 0 0
9:15 am 09:15 Sunny 71 21.4 69 20.3 93 93 NW 5 7 29.97 1015 7 11.26538 0 0
9:35 am 09:35 Sunny 73 22.5 69 20.6 89 89 NW 5 7 29.97 1015 10 16.0934 0 0
9:55 am 09:55 Sunny 74 23.2 69 20.6 85 85 NW 5 7 29.97 1015 10 16.0934 0 0
10:15 am 10:15 Sunny 77 24.8 70 21 79 79 NNW 3 6 29.94 1014 10 16.0934 0 0
10:35 am 10:35 Sunny 80 26.5 70 21 72 72 Calm 29.94 1014 10 16.0934 0 0
10:55 am 10:55 Sunny 81 27.3 70 20.9 68 68 Calm 29.94 1014 10 16.0934 0 0
11:15 am 11:15 Sunny 83 28.1 69 20.4 63 63 W 3 6 29.91 1013 10 16.0934 0 0
11:35 am 11:35 Sunny 84 28.9 71 21.4 64 64 NNW 3 6 29.91 1013 10 16.0934 0 0
11:55 am 11:55 Sunny 85 29.7 68 20.1 56 56 NNW 3 6 29.91 1013 10 16.0934 0 0
12:15 pm 12:15 Sunny 86 30 67 19.7 54 54 NW 5 7 29.91 1013 10 16.0934 0 0
12:35 pm 12:35 Sunny 87 30.5 67 19.2 51 51 NW 3 6 29.91 1013 10 16.0934 0 0
12:55 pm 12:55 Sunny 88 31.2 67 19.5 50 50 Calm 29.88 1012 10 16.0934 0 0
1:15 pm 13:15 Sunny 89 31.5 65 18.4 46 46 Calm 29.88 1012 10 16.0934 0 0
1:35 pm 13:35 Sunny 89 31.5 64 17.5 43 43 Calm 29.88 1012 10 16.0934 0 0
1:55 pm 13:55 Sunny 89 31.8 63 17.4 42 42 Calm 29.85 1011 10 16.0934 0 0
2:15 pm 14:15 Sunny 90 32 63 17 41 41 Calm 29.85 1011 10 16.0934 0 0
2:35 pm 14:35 Sunny 90 32.4 60 15.7 37 37 Calm 29.85 1011 10 16.0934 0 0
2:55 pm 14:55 Sunny 91 32.8 64 17.9 41 41 S 5 7 29.85 1011 10 16.0934 0 0
3:15 pm 15:15 Sunny 91 32.8 61 16.1 37 37 SSW 5 7 29.85 1011 10 16.0934 0 0
3:35 pm 15:35 Sunny 91 32.9 59 15 34 34 Calm 29.85 1011 10 16.0934 0 0
3:55 pm 15:55 Sunny 91 32.8 60 15.8 36 36 Calm 29.85 1011 10 16.0934 0 0
4:15 pm 16:15 Sunny 91 32.7 61 16.2 37 37 Calm 29.85 1011 10 16.0934 0 0
4:35 pm 16:35 Sunny 91 32.9 60 15.5 35 35 Calm 29.85 1011 10 16.0934 0 0
4:55 pm 16:55 Sunny 92 33.1 62 16.4 37 37 SSE 3 6 29.85 1011 10 16.0934 0 0
5:15 pm 17:15 Sunny 92 33.1 63 17 38 38 Calm 29.85 1011 10 16.0934 0 0
5:35 pm 17:35 Sunny 91 32.8 63 17.1 39 39 S 3 6 29.85 1011 10 16.0934 0 0
5:55 pm 17:55 Sunny 91 32.6 64 17.7 41 41 S 6 9 29.85 1011 10 16.0934 0 0
6:15 pm 18:15 Sunny 91 32.5 64 17.9 42 42 S 5 7 29.85 1011 10 16.0934 0 0
6:35 pm 18:35 Sunny 90 32.1 66 19.1 46 46 S 5 7 29.85 1011 10 16.0934 0 0
6:55 pm 18:55 Sunny 87 30.5 66 19 50 50 SSE 5 7 29.88 1012 10 16.0934 0 0
7:15 pm 19:15 Sunny 85 29.5 70 21 60 60 S 3 6 29.88 1012 10 16.0934 0 0
7:35 pm 19:35 Sunny with Nearby Thunderstorms 84 29 69 20.6 61 61 SSE 5 7 29.88 1012 10 16.0934 0 0
7:55 pm 19:55 Sunny 84 28.8 70 20.9 62 62 ESE 3 6 29.88 1012 10 16.0934 0 0
8:15 pm 20:15 Sunny 83 28.6 73 22.9 71 71 NNW 3 6 29.88 1012 10 16.0934 0 0
8:35 pm 20:35 Sunny 80 26.5 64 17.7 59 59 W 8 13 29.91 1013 10 16.0934 0 0
8:55 pm 20:55 Clear 76 24.3 66 19 72 72 N 6 9 29.94 1014 10 16.0934 0 0
9:15 pm 21:15 Clear 76 24.3 65 18.1 68 68 N 7 11 29.94 1014 10 16.0934 0 0
9:35 pm 21:35 Clear 77 25 67 19.5 72 72 E 7 11 29.94 1014 10 16.0934 0 0
9:55 pm 21:55 Clear 77 25 68 20 74 74 ENE 6 9 29.97 1015 10 16.0934 0 0
10:15 pm 22:15 Clear 75 24 68 20.1 79 79 ENE 6 9 30 1016 10 16.0934 0 0
10:35 pm 22:35 Clear 74 23.5 68 20.1 81 81 ENE 5 7 30 1016 10 16.0934 0 0
10:55 pm 22:55 Clear 74 23.3 68 19.8 81 81 ENE 5 7 30 1016 10 16.0934 0 0
11:15 pm 23:15 Clear 73 22.7 67 19.5 82 82 ENE 6 9 30 1016 10 16.0934 0 0
11:35 pm 23:35 Clear 72 22.4 67 19.3 83 83 ENE 5 7 30 1016 10 16.0934 0 0
11:55 pm 23:55 Clear 72 22 67 19.3 85 85 ENE 5 7 30 1016 10 16.0934 0 0

Powered by AerisWeather